Temp
22 23 24 23 22 22 22 22 21 21 21 21 20 20 21 20 20 20 20 19 18 18 19 19 20 20 20 20 20 20 20 20 17 14 14 13 13 13 13 13 13 13 14
22 24 24 23 23 22 22 22 21 21 21 21 21 21 21 21 21 21 21 19 18 18 18 18 19 19 19 19 20 19 19 19 18 14 13 12 12 12 12 12 12 12 12
23 24 24 24 23 23 22 22 21 21 21 21 20 21 21 20 20 20 20 20 18 17 18 18 18 18 18 18 19 19 18 18 17 14 12 12 12 12 12 12 12 12 12
24 25 25 24 23 22 22 21 21 21 21 21 20 20 20 20 20 20 20 19 20 19 18 17 17 16 17 19 19 18 17 15 14 13 12 12 12 12 12 12 11 11 11
25 25 25 23 22 22 22 21 21 21 21 20 20 20 21 21 19 19 20 19 19 19 18 17 16 17 18 18 19 18 18 16 14 13 13 12 12 12 12 12 12 13 12
25 25 24 23 22 21 21 21 21 21 21 20 21 21 21 19 18 18 19 19 19 18 18 18 17 17 16 16 17 17 18 18 17 16 16 15 15 15 14 15 15 14 14
25 25 23 22 22 21 21 20 21 20 20 20 20 21 19 17 17 18 18 19 19 18 18 19 19 18 18 17 17 16 16 16 17 17 16 16 16 15 15 15 16 16 16
25 25 23 22 22 21 21 20 20 19 19 19 20 20 19 16 17 17 18 18 18 18 18 17 16 16 17 17 16 15 15 16 16 16 15 15 15 15 15 16 16 15 15
22 22 23 22 22 21 20 20 19 19 19 18 19 18 18 16 16 17 17 19 18 18 17 16 16 15 16 17 17 16 15 14 15 15 15 15 15 15 15 17 17 19 19
22 22 23 22 22 21 20 20 19 19 19 18 19 18 17 16 16 17 18 19 18 17 17 15 15 15 15 16 17 17 17 17 17 15 15 15 15 15 15 15 16 18 19
21 20 20 19 20 20 19 19 19 19 18 19 18 17 17 17 16 16 17 17 16 17 18 16 14 15 15 15 15 16 16 16 16 16 17 18 18 17 17 15 14 16 16
19 19 18 18 18 19 19 19 19 17 17 18 17 17 17 16 16 16 16 16 16 16 15 15 15 15 15 15 15 16 16 16 18 18 19 18 18 17 17 15 14 14 14
17 17 17 17 17 18 18 18 17 16 16 17 18 19 18 17 15 14 15 15 15 15 15 14 15 15 15 15 15 16 16 17 18 19 18 18 17 16 15 16 16 15 14
16 16 15 16 15 16 17 16 16 15 16 17 18 17 18 18 16 14 14 14 14 14 14 14 14 14 14 16 15 16 17 17 17 17 17 17 17 17 17 16 16 16 16
15 15 15 14 14 14 15 14 15 15 16 16 17 17 18 18 18 17 16 16 15 16 14 14 14 16 17 18 18 17 17 17 17 17 17 17 17 17 17 16 16 16 16
16 16 16 15 13 13 12 13 14 15 15 16 17 17 16 16 16 15 14 15 15 14 15 16 17 19 19 19 18 18 17 16 16 16 16 16 16 16 16 16 16 16 16
15 17 17 17 15 12 12 12 12 12 13 14 14 15 15 15 14 14 13 13 14 14 14 18 19 19 19 18 18 18 18 16 15 16 16 16 16 16 16 16 16 16 16
15 16 17 18 17 15 13 14 15 13 12 12 12 13 13 13 13 13 13 13 13 13 16 19 19 19 18 18 18 18 17 17 17 16 16 16 16 16 16 16 17 16 16
16 17 17 17 17 17 16 16 15 15 16 16 13 11 11 12 12 12 12 14 17 17 18 19 19 18 18 18 17 17 16 16 16 16 16 16 16 16 16 16 17 16 15
16 16 17 18 18 17 18 18 19 20 20 19 16 15 12 10 12 12 12 14 17 19 19 19 19 18 18 17 17 16 16 16 16 16 17 16 16 16 16 16 16 16 16
18 17 17 18 20 20 21 21 22 21 21 20 19 18 15 15 17 17 17 17 18 19 19 19 19 18 17 17 17 17 17 17 17 17 17 16 16 15 15 15 15 15 16
18 16 19 19 21 21 21 21 21 21 21 21 20 16 16 15 20 19 19 19 19 19 19 18 18 19 18 18 17 17 17 17 17 16 16 15 15 15 14 15 15 15 15
17 17 18 19 21 21 21 21 21 21 21 21 20 18 16 18 20 20 19 19 19 19 18 17 17 18 18 16 15 15 16 16 15 14 13 13 14 14 14 13 13 14 14
17 16 17 18 19 20 20 20 21 21 21 21 21 20 19 19 19 20 20 19 18 17 16 16 16 16 16 15 14 14 13 12 11 12 11 11 12 12 12 12 12 13 12
18 16 16 17 18 18 18 19 20 20 20 20 19 19 19 19 19 19 18 18 16 15 14 14 14 14 14 13 14 12 11 10 10 10 9 10 11 11 10 11 11 11 11
18 17 16 16 16 17 19 18 18 17 17 18 19 19 19 18 18 16 16 14 14 13 14 14 14 13 12 11 10 9 10 9 8 8 8 8 10 10 10 10 10 10 10
Height
805 806 810 815 817 819 822 822 823 824 823 822 821 820 818 816 816 817 816 815 815 814 813 811 809 808 807 807 807 807 808 810 817 825 828 831 832 833 834 835 837 836 835
807 806 810 815 818 819 820 824 825 825 824 824 823 821 820 819 819 819 819 818 819 818 817 814 813 812 811 811 811 810 811 812 815 823 829 831 833 834 836 837 837 838 837
806 807 810 813 816 818 821 825 826 825 825 826 824 822 823 822 822 821 821 822 822 821 820 817 816 815 815 815 815 815 815 816 818 823 829 832 835 836 837 838 838 838 838
807 807 810 811 815 820 822 825 825 825 826 826 826 826 825 825 825 825 825 824 824 823 823 822 820 818 818 819 818 818 820 821 823 826 831 834 836 838 839 839 840 840 840
806 808 810 813 816 819 822 824 826 825 827 827 827 828 828 828 828 828 828 828 827 826 826 826 825 823 821 820 821 822 822 825 827 830 833 836 838 839 839 840 840 841 841
805 807 811 812 815 818 822 824 826 827 828 829 829 830 830 830 830 830 830 832 831 831 831 831 830 828 828 827 826 825 825 826 828 831 833 835 837 838 839 838 839 839 840
804 805 809 812 813 817 820 823 825 827 828 830 830 831 833 833 831 832 833 835 835 834 834 834 833 833 833 833 833 832 831 832 833 834 834 836 837 837 837 837 837 836 837
803 803 808 811 812 816 819 821 824 826 828 829 831 832 834 835 835 834 835 837 838 837 837 838 838 836 835 836 837 837 837 835 835 836 837 838 838 838 838 837 836 836 836
800 804 806 808 810 813 816 818 821 824 826 828 829 831 834 835 835 836 836 837 838 839 840 839 840 839 838 837 839 840 841 840 840 839 840 840 840 839 838 836 834 833 828
799 803 804 806 807 809 812 815 818 821 823 825 828 830 832 834 835 835 835 837 839 839 840 840 840 840 840 839 839 840 841 841 840 840 841 840 840 840 839 839 837 833 830
803 805 806 807 806 810 811 813 815 818 822 823 827 828 831 833 834 835 835 836 837 838 840 842 842 841 841 842 841 840 840 842 841 840 839 839 839 839 840 841 840 838 836
802 804 807 810 812 810 810 811 813 815 819 822 825 827 829 831 832 833 835 835 836 837 840 842 843 842 842 843 843 841 841 841 839 838 837 838 840 840 841 841 841 841 839
803 805 805 808 810 810 810 811 812 814 817 820 822 823 827 829 831 833 834 834 836 838 840 841 842 844 843 844 844 842 841 839 838 837 838 840 842 842 841 840 839 838 836
804 805 806 807 809 810 809 809 811 814 816 817 820 822 825 827 829 832 833 834 835 837 839 842 841 844 844 843 843 842 842 842 840 840 840 841 841 841 840 841 839 837 836
803 804 805 806 807 807 807 808 810 811 814 815 817 819 821 824 826 827 830 832 835 835 838 840 841 842 840 838 840 841 842 842 841 841 841 841 840 840 840 840 839 837 835
802 802 803 804 805 805 806 807 808 809 812 814 815 817 819 821 821 826 829 829 833 835 837 838 836 834 834 835 837 839 841 842 842 842 842 842 841 840 841 839 838 837 835
800 801 802 803 803 806 806 807 807 810 810 812 815 816 818 819 822 823 828 829 832 834 834 831 830 832 835 836 837 837 839 842 843 842 842 842 842 840 840 838 837 835 834
800 800 800 800 800 803 805 806 807 809 810 812 815 815 818 820 821 823 827 829 832 832 831 826 827 831 833 835 836 837 839 840 841 842 841 841 841 840 838 837 835 834 834
798 798 798 798 798 799 800 803 804 806 806 808 814 815 817 819 821 823 825 827 826 826 825 822 825 830 832 834 836 838 840 839 840 841 840 839 839 838 836 834 832 831 831
795 796 796 795 795 797 797 797 796 796 797 800 808 811 815 818 819 821 823 824 820 818 819 821 825 828 830 832 835 836 837 837 836 836 835 836 836 835 834 833 831 828 826
791 792 792 791 788 789 788 787 787 791 794 798 801 805 809 812 813 815 817 817 816 816 817 820 822 825 828 830 832 832 832 832 831 832 832 833 834 835 834 833 832 828 824
787 788 787 788 784 786 786 787 788 790 791 794 797 804 808 809 806 808 810 812 814 814 816 819 820 820 822 825 826 827 828 829 829 830 831 833 833 832 831 829 827 824 823
784 784 784 785 783 784 786 784 786 786 787 790 793 801 806 806 803 804 806 808 811 813 816 818 819 819 820 822 824 826 827 827 827 830 831 831 830 830 828 827 826 823 821
781 782 782 783 783 784 785 785 784 785 785 786 789 792 797 800 801 801 803 805 808 811 814 816 817 818 818 821 823 823 824 824 826 828 829 829 828 826 825 824 824 821 821
776 778 780 780 781 783 787 786 782 783 785 787 791 791 791 793 797 800 801 803 808 810 812 812 814 815 816 819 820 820 819 821 821 823 824 825 824 824 823 822 821 820 818
772 774 776 777 780 781 780 781 783 786 790 790 789 789 789 792 796 798 800 802 804 807 808 809 809 811 813 816 818 815 817 818 818 819 820 821 820 820 819 818 819 818 816
Wind_Speed
14 13 12 9 9 8 5 4 5 4 5 5 5 6 7 10 11 9 9 12 14 13 12 14 13 12 12 9 7 4 4 7 9 7 14 12 11 11 10 9 8 8 8
13 10 11 10 9 9 6 4 4 4 5 5 7 8 9 10 10 11 11 13 13 14 13 15 17 13 14 13 11 12 10 7 12 14 13 9 11 9 8 8 7 8 8
15 13 13 11 9 7 6 5 4 4 5 5 6 8 8 9 10 11 11 11 12 13 14 16 15 15 16 15 13 12 12 11 9 14 10 11 10 7 8 7 7 6 5
15 14 13 12 10 8 7 6 5 4 4 4 5 6 7 8 9 9 10 10 11 13 14 16 16 14 13 11 14 14 14 14 15 14 15 12 8 6 6 6 4 4 4
14 13 11 11 11 11 9 6 5 5 3 3 4 4 5 5 6 7 8 9 10 12 13 15 18 19 16 15 12 11 12 14 16 17 12 9 8 6 4 4 4 4 1
18 12 10 12 13 12 9 9 7 5 4 3 3 3 4 5 8 9 9 8 9 10 11 11 10 15 20 19 16 16 15 13 13 12 10 9 7 6 5 5 5 4 3
16 14 11 12 13 14 13 11 9 8 6 4 3 4 4 5 8 10 9 7 8 9 9 8 9 11 11 12 16 17 19 17 13 12 12 10 8 5 2 3 2 1 2
13 12 10 12 14 13 14 13 11 10 8 6 4 4 6 4 7 10 10 6 6 8 8 9 9 9 12 11 12 15 15 15 15 12 11 9 6 4 3 1 2 2 3
9 9 11 14 14 14 15 13 16 13 11 9 8 7 6 6 8 9 3 4 5 6 6 8 7 8 11 11 9 10 10 12 14 14 13 12 12 10 7 8 5 8 6
11 15 11 13 14 14 17 13 15 16 13 12 10 9 8 7 8 8 4 4 5 6 5 6 5 7 7 7 6 5 5 5 4 4 5 6 5 7 13 11 8 10 8
8 9 4 8 10 10 13 15 16 16 15 13 11 9 10 8 9 9 6 5 7 6 5 5 4 6 7 5 5 3 3 3 2 4 3 2 1 3 6 8 9 10 9
5 3 3 4 7 11 13 15 17 19 20 15 13 12 10 9 11 11 9 6 4 6 6 4 6 7 7 7 5 4 3 4 3 1 1 3 4 6 6 5 3 5 3
6 6 8 7 8 8 12 15 19 23 23 18 15 14 11 10 7 12 10 9 6 6 6 7 9 9 8 7 4 4 2 5 2 1 4 4 4 3 6 4 6 6 8
7 6 6 6 8 11 8 16 21 20 20 14 14 13 11 10 10 10 9 9 9 8 9 11 12 6 4 5 5 2 2 3 4 4 3 3 4 4 4 5 7 7 8
5 5 6 6 8 10 11 14 18 20 21 16 15 15 13 12 12 13 12 11 11 10 12 12 9 10 11 8 3 1 1 2 2 3 3 3 3 4 4 5 5 6 7
5 6 7 9 6 8 10 11 16 16 17 14 15 13 8 7 13 16 16 12 13 13 11 12 13 12 5 4 3 4 4 2 2 3 3 4 4 4 6 5 5 5 6
7 7 8 8 8 8 9 10 12 11 12 13 14 15 11 13 11 13 14 14 14 17 11 15 9 6 5 4 4 2 4 3 1 1 2 3 4 5 4 5 5 5 8
8 10 10 10 10 11 11 11 11 13 13 10 12 12 11 12 13 13 13 13 11 16 14 13 10 8 7 6 5 4 3 4 3 2 2 3 4 6 6 6 7 5 8
9 11 11 11 11 12 13 13 13 16 17 14 11 11 15 14 13 13 14 14 16 16 15 11 8 9 8 7 4 3 1 2 2 5 5 4 4 7 8 9 10 7 7
12 13 12 12 13 14 15 18 21 21 19 17 13 15 16 15 13 14 15 16 15 14 11 10 11 9 10 7 7 6 8 10 9 9 7 6 8 8 13 16 17 16 14
10 15 16 17 19 15 16 15 12 12 13 14 15 16 19 18 16 16 16 16 13 12 10 10 11 12 10 10 10 10 10 10 9 8 9 7 10 13 15 15 15 21 19
12 13 12 18 15 14 14 14 14 15 15 15 14 15 19 18 13 13 13 13 12 10 10 10 10 9 10 9 11 9 8 11 12 11 9 10 13 15 16 18 18 15 18
13 18 14 16 13 11 13 14 15 16 16 16 17 16 17 15 12 12 12 11 11 11 9 8 10 10 8 3 5 6 10 11 6 6 8 11 13 16 17 17 19 19 18
13 21 12 14 15 11 14 17 16 15 14 13 13 19 20 17 13 12 11 9 7 8 8 10 10 11 10 9 8 7 5 7 3 5 7 10 13 15 15 15 16 15 15
15 20 16 15 13 10 14 22 15 9 9 7 10 14 14 10 11 12 11 10 10 11 11 10 10 9 10 11 8 10 11 7 8 9 10 11 12 11 12 12 12 13 13
17 19 18 18 24 26 24 8 5 1 10 14 13 12 8 5 5 4 6 9 12 11 11 12 12 11 11 11 11 14 9 9 10 10 9 7 10 10 10 9 11 13 13
Wind_Direction
160 156 144 150 139 121 122 94 66 54 45 61 68 70 69 63 58 52 72 49 44 42 36 36 36 32 41 45 57 83 128 139 120 100 125 134 119 125 122 118 91 81 82
158 141 146 148 135 118 103 84 85 74 75 72 70 66 63 64 64 62 59 62 52 48 44 44 39 42 42 36 50 55 62 101 128 122 129 116 113 119 110 104 93 96 86
157 164 158 149 134 122 133 140 131 107 84 68 73 76 70 67 67 67 67 68 67 61 54 55 50 51 53 53 57 65 64 81 106 137 122 131 117 120 107 100 99 98 95
180 170 162 151 145 158 160 164 145 111 98 88 79 83 82 75 71 73 75 76 74 69 62 59 54 52 46 58 60 73 79 82 98 109 116 122 122 126 113 110 107 117 100
177 168 168 159 161 165 171 177 156 132 125 116 105 96 87 73 76 76 79 77 77 77 75 69 64 64 66 70 73 64 95 95 102 109 117 126 134 152 174 163 148 154 166
192 187 175 180 171 170 182 182 172 158 164 141 120 111 93 81 114 95 83 82 82 79 75 72 70 60 65 67 75 76 83 94 114 121 133 140 151 146 154 173 158 199 160
192 176 180 190 175 183 183 186 179 176 173 173 154 129 101 100 112 114 95 91 89 87 83 78 78 72 72 70 63 70 79 81 88 95 89 87 85 69 105 181 215 255 95
209 193 175 195 191 190 193 183 184 176 179 177 183 148 133 133 119 122 106 95 89 84 83 77 73 75 76 79 77 73 74 82 81 83 81 75 72 66 346 124 190 172 154
165 227 196 201 198 188 193 195 183 178 174 181 178 164 161 158 144 141 104 132 107 95 86 91 81 81 99 90 93 94 93 91 82 78 77 74 65 48 29 329 219 296 243
198 245 233 221 203 190 190 204 192 180 179 178 174 173 171 174 166 163 176 187 138 116 106 102 99 94 106 97 100 103 98 94 98 109 64 56 59 39 45 33 8 344 336
234 240 207 230 198 207 205 205 188 184 177 172 173 171 174 184 195 183 154 128 151 168 140 119 116 105 94 92 72 55 114 151 165 189 209 164 8 87 38 25 16 1 350
169 182 200 226 224 220 222 207 188 178 169 174 174 175 181 186 198 197 186 172 184 138 151 150 142 126 107 89 60 77 117 210 275 268 256 59 359 11 10 356 345 356 354
210 187 180 198 217 224 220 207 183 175 173 178 181 180 179 181 183 197 193 189 186 160 162 167 154 138 123 98 86 103 294 279 350 18 30 30 2 359 312 283 300 265 246
186 192 210 203 221 228 204 200 183 176 182 186 179 176 179 189 186 183 184 188 181 163 169 167 160 169 216 184 206 234 46 26 24 23 6 349 326 337 340 351 335 336 323
195 197 201 197 206 201 201 186 191 188 191 188 187 187 191 199 190 183 179 183 183 181 169 177 189 206 212 199 160 112 86 149 65 26 358 348 346 336 354 336 333 332 334
224 224 217 198 192 197 180 173 189 193 191 193 180 181 199 178 180 192 186 180 185 185 178 189 208 219 203 168 186 157 148 120 54 40 28 12 359 349 358 328 344 338 337
235 243 229 225 181 190 184 178 152 164 175 184 188 189 198 195 183 178 188 191 189 187 214 219 209 194 194 189 188 190 144 99 218 13 3 12 352 350 316 349 344 339 351
237 247 239 220 202 189 190 190 185 175 164 171 181 182 184 182 173 173 181 178 195 205 238 236 197 192 197 191 194 195 187 183 200 306 303 328 333 334 325 330 317 3 337
246 243 226 232 216 207 191 190 188 189 192 170 169 180 183 182 182 185 190 199 200 204 219 220 187 192 201 198 195 203 256 293 4 312 284 284 309 305 307 303 305 277 263
229 254 228 221 214 208 207 203 209 200 198 174 188 189 181 179 186 196 204 212 228 220 204 201 190 202 201 202 193 215 225 213 218 243 266 303 293 301 314 318 319 312 306
236 237 222 239 225 224 221 220 214 202 196 189 195 175 180 183 189 190 193 205 218 209 200 210 195 196 213 203 226 225 243 260 259 274 285 294 315 304 300 300 297 294 308
244 268 219 230 223 217 219 206 196 195 190 187 165 161 192 211 209 187 198 197 206 208 203 209 229 225 216 233 211 229 266 286 287 285 290 291 288 295 295 289 291 289 288
240 247 256 234 241 216 214 207 199 199 192 191 177 175 192 213 229 199 204 208 208 207 210 221 239 247 252 200 239 250 259 275 286 276 269 278 287 291 295 297 292 293 295
235 238 261 224 244 214 219 240 215 214 211 208 201 179 191 205 222 230 225 218 197 205 210 217 231 248 250 238 229 217 200 199 196 257 264 276 287 288 288 290 287 289 292
237 229 245 219 230 228 218 227 240 199 223 221 240 236 198 201 228 240 246 202 213 222 224 217 228 227 216 215 212 202 218 224 241 260 276 278 277 278 278 278 285 289 291
234 220 223 214 213 235 224 209 206 224 264 268 248 224 194 199 222 191 179 189 209 222 229 229 223 208 200 199 202 221 235 260 270 272 262 263 266 270 275 281 284 286 288